Location: Alice Springs
(23.6980°S, 133.8807°E)
Time: 12:49:40
(UTC+09:30)

Tianhe-1 - Visible Passes

Search period start: 17 June 2021 00:00
Search period end: 27 June 2021 00:00
Orbit: 374 x 387 km, 41.5° (Epoch: 16 June)

Date Brightness Start Highest point End Pass type
(mag) Time Alt. Az. Time Alt. Az. Time Alt. Az.
24 Jun 3.4 18:36:59 10° SSE 18:37:27 10° SSE 18:37:56 10° SSE visible
25 Jun 2.2 19:10:41 10° SSW 19:12:59 29° S 19:12:59 29° S visible
26 Jun 3.0 19:46:17 10° WSW 19:48:11 29° W 19:48:11 29° W visible
